| time (UTC) | temp F | wind direction | speed MPH | gust MPH | rain 1hr in | rain 24hr in | rain mn in | humidity % | barometer mb |
| 20260507124748 | 74 | 210 | 4.0 | 5.0 | 0.00 | 0.00 | 0.00 | 39 | 1017.9 |
| 20260507124247 | 75 | 258 | 0.0 | 0.0 | 0.00 | 0.00 | 0.00 | 37 | 1017.9 |
| 20260507123747 | 75 | 236 | 2.0 | 2.0 | 0.00 | 0.00 | 0.00 | 37 | 1017.6 |
| 20260507123248 | 74 | 190 | 4.0 | 5.0 | 0.00 | 0.00 | 0.00 | 39 | 1017.9 |
| 20260507122747 | 75 | 222 | 5.0 | 5.0 | 0.00 | 0.00 | 0.00 | 39 | 1017.9 |
| 20260507122247 | 74 | 145 | 2.0 | 2.0 | 0.00 | 0.00 | 0.00 | 38 | 1017.9 |
| 20260507121747 | 74 | 250 | 3.0 | 3.0 | 0.00 | 0.00 | 0.00 | 40 | 1017.9 |
| 20260507121248 | 75 | 223 | 3.0 | 3.0 | 0.00 | 0.00 | 0.00 | 39 | 1017.9 |
| 20260507120747 | 75 | 210 | 5.0 | 7.0 | 0.00 | 0.00 | 0.00 | 39 | 1017.9 |
| 20260507120247 | 74 | 254 | 2.0 | 2.0 | 0.00 | 0.00 | 0.00 | 39 | 1018.3 |
| 20260507115747 | 75 | 194 | 3.0 | 3.0 | 0.00 | 0.00 | 0.00 | 40 | 1018.3 |
| 20260507115249 | 75 | 228 | 0.0 | 0.0 | 0.00 | 0.00 | 0.00 | 38 | 1018.3 |
| 20260507114748 | 76 | 265 | 0.0 | 0.0 | 0.00 | 0.00 | 0.00 | 39 | 1018.3 |
| 20260507114248 | 76 | 70 | 0.0 | 0.0 | 0.00 | 0.00 | 0.00 | 36 | 1018.3 |
| 20260507113748 | 75 | 328 | 1.0 | 1.0 | 0.00 | 0.00 | 0.00 | 37 | 1018.3 |
| 20260507113247 | 75 | 184 | 5.0 | 5.0 | 0.00 | 0.00 | 0.00 | 38 | 1018.3 |
| 20260507112748 | 75 | 286 | 2.0 | 2.0 | 0.00 | 0.00 | 0.00 | 38 | 1018.6 |
| 20260507112248 | 76 | 150 | 1.0 | 1.0 | 0.00 | 0.00 | 0.00 | 39 | 1018.6 |
| 20260507111748 | 76 | 8 | 0.0 | 0.0 | 0.00 | 0.00 | 0.00 | 38 | 1018.6 |
| 20260507111247 | 76 | 114 | 0.0 | 0.0 | 0.00 | 0.00 | 0.00 | 36 | 1018.6 |
| 20260507110747 | 73 | 78 | 0.0 | 0.0 | 0.00 | 0.00 | 0.00 | 37 | 1018.6 |
| 20260507110248 | 73 | 162 | 3.0 | 3.0 | 0.00 | 0.00 | 0.00 | 41 | 1018.6 |
| 20260507105747 | 73 | 154 | 2.0 | 2.0 | 0.00 | 0.00 | 0.00 | 40 | 1019.0 |
| 20260507105248 | 73 | 138 | 1.0 | 1.0 | 0.00 | 0.00 | 0.00 | 40 | 1019.0 |
| 20260507104748 | 73 | 212 | 3.0 | 3.0 | 0.00 | 0.00 | 0.00 | 40 | 1019.0 |
| 20260507104247 | 73 | 245 | 2.0 | 2.0 | 0.00 | 0.00 | 0.00 | 41 | 1019.0 |
| 20260507103747 | 73 | 127 | 3.0 | 4.0 | 0.00 | 0.00 | 0.00 | 41 | 1019.0 |
| 20260507103248 | 73 | 236 | 5.0 | 7.0 | 0.00 | 0.00 | 0.00 | 42 | 1019.0 |
| 20260507102748 | 72 | 65 | 1.0 | 1.0 | 0.00 | 0.00 | 0.00 | 43 | 1019.0 |
| 20260507102247 | 72 | 150 | 4.0 | 4.0 | 0.00 | 0.00 | 0.00 | 45 | 1019.0 |
| 20260507101747 | 73 | 239 | 2.0 | 2.0 | 0.00 | 0.00 | 0.00 | 43 | 1019.0 |
| 20260507101247 | 73 | 134 | 0.0 | 0.0 | 0.00 | 0.00 | 0.00 | 44 | 1019.3 |
| 20260507100747 | 72 | 127 | 4.0 | 4.0 | 0.00 | 0.00 | 0.00 | 44 | 1019.0 |
| 20260507100247 | 72 | 151 | 3.0 | 3.0 | 0.00 | 0.00 | 0.00 | 44 | 1019.0 |
| 20260507095747 | 71 | 186 | 3.0 | 3.0 | 0.00 | 0.00 | 0.00 | 45 | 1019.3 |
| 20260507095247 | 69 | 168 | 2.0 | 2.0 | 0.00 | 0.00 | 0.00 | 47 | 1019.3 |
| 20260507094747 | 70 | 205 | 8.0 | 8.0 | 0.00 | 0.00 | 0.00 | 46 | 1019.3 |
| 20260507094248 | 70 | 222 | 8.0 | 9.0 | 0.00 | 0.00 | 0.00 | 46 | 1019.3 |
| 20260507093748 | 71 | 198 | 4.0 | 4.0 | 0.00 | 0.00 | 0.00 | 44 | 1019.3 |
| 20260507093248 | 70 | 204 | 5.0 | 5.0 | 0.00 | 0.00 | 0.00 | 45 | 1019.6 |
| 20260507092747 | 69 | 151 | 5.0 | 5.0 | 0.00 | 0.00 | 0.00 | 44 | 1019.6 |
| 20260507092249 | 69 | 234 | 3.0 | 3.0 | 0.00 | 0.00 | 0.00 | 47 | 1020.0 |
| 20260507091747 | 70 | 156 | 4.0 | 4.0 | 0.00 | 0.00 | 0.00 | 47 | 1019.6 |
| 20260507091247 | 69 | 112 | 2.0 | 2.0 | 0.00 | 0.00 | 0.00 | 47 | 1019.6 |
| 20260507090748 | 68 | 223 | 2.0 | 2.0 | 0.00 | 0.00 | 0.00 | 47 | 1019.6 |
| 20260507090247 | 69 | 288 | 2.0 | 2.0 | 0.00 | 0.00 | 0.00 | 46 | 1020.0 |
| 20260507085747 | 70 | 138 | 3.0 | 3.0 | 0.00 | 0.00 | 0.00 | 47 | 1020.0 |
| 20260507085247 | 69 | 211 | 4.0 | 5.0 | 0.00 | 0.00 | 0.00 | 48 | 1020.0 |
| 20260507084748 | 69 | 180 | 5.0 | 5.0 | 0.00 | 0.00 | 0.00 | 47 | 1020.0 |
| 20260507084247 | 70 | 119 | 3.0 | 3.0 | 0.00 | 0.00 | 0.00 | 49 | 1020.0 |
| 20260507083747 | 69 | 161 | 4.0 | 4.0 | 0.00 | 0.00 | 0.00 | 47 | 1020.0 |
| 20260507083248 | 69 | 205 | 5.0 | 5.0 | 0.00 | 0.00 | 0.00 | 52 | 1020.0 |
| 20260507082747 | 68 | 143 | 1.0 | 1.0 | 0.00 | 0.00 | 0.00 | 49 | 1020.0 |
| 20260507082247 | 67 | 199 | 4.0 | 4.0 | 0.00 | 0.00 | 0.00 | 53 | 1020.3 |
| 20260507081747 | 67 | 186 | 4.0 | 5.0 | 0.00 | 0.00 | 0.00 | 51 | 1020.3 |
| 20260507081247 | 67 | 41 | 0.0 | 0.0 | 0.00 | 0.00 | 0.00 | 54 | 1020.0 |
| 20260507080747 | 66 | 211 | 5.0 | 6.0 | 0.00 | 0.00 | 0.00 | 54 | 1020.0 |
| 20260507080247 | 67 | 132 | 1.0 | 1.0 | 0.00 | 0.00 | 0.00 | 54 | 1020.3 |
| 20260507075747 | 66 | 0 | 4.0 | 4.0 | 0.00 | 0.00 | 0.00 | 57 | 1020.3 |
| 20260507075248 | 65 | 156 | 3.0 | 3.0 | 0.00 | 0.00 | 0.00 | 59 | 1020.3 |
| 20260507074748 | 65 | 199 | 4.0 | 4.0 | 0.00 | 0.00 | 0.00 | 60 | 1020.3 |
| 20260507074247 | 65 | 242 | 2.0 | 2.0 | 0.00 | 0.00 | 0.00 | 60 | 1020.3 |
| 20260507073748 | 64 | 160 | 5.0 | 5.0 | 0.00 | 0.00 | 0.00 | 60 | 1020.3 |
| 20260507073247 | 65 | 152 | 2.0 | 2.0 | 0.00 | 0.00 | 0.00 | 58 | 1020.3 |
| 20260507072748 | 64 | 258 | 2.0 | 2.0 | 0.00 | 0.00 | 0.00 | 60 | 1020.3 |
| 20260507072251 | 64 | 222 | 7.0 | 7.0 | 0.00 | 0.00 | 0.00 | 63 | 1020.3 |
| 20260507071748 | 63 | 137 | 4.0 | 4.0 | 0.00 | 0.00 | 0.00 | 63 | 1020.0 |
| 20260507071248 | 63 | 221 | 5.0 | 5.0 | 0.00 | 0.00 | 0.00 | 64 | 1020.0 |
| 20260507070748 | 63 | 176 | 6.0 | 7.0 | 0.00 | 0.00 | 0.00 | 64 | 1020.3 |
| 20260507070247 | 63 | 286 | 4.0 | 4.0 | 0.00 | 0.00 | 0.00 | 64 | 1020.3 |
| 20260507065748 | 63 | 126 | 3.0 | 4.0 | 0.00 | 0.00 | 0.00 | 61 | 1020.3 |
| 20260507065247 | 63 | 185 | 3.0 | 4.0 | 0.00 | 0.00 | 0.00 | 64 | 1020.3 |
| 20260507064747 | 62 | 84 | 0.0 | 0.0 | 0.00 | 0.00 | 0.00 | 65 | 1020.3 |
| 20260507064247 | 61 | 221 | 5.0 | 5.0 | 0.00 | 0.00 | 0.00 | 67 | 1020.7 |
| 20260507063747 | 61 | 217 | 5.0 | 6.0 | 0.00 | 0.00 | 0.00 | 67 | 1020.7 |
| 20260507063247 | 60 | 176 | 2.0 | 2.0 | 0.00 | 0.00 | 0.00 | 67 | 1020.3 |
| 20260507062747 | 60 | 147 | 2.0 | 2.0 | 0.00 | 0.00 | 0.00 | 70 | 1020.7 |
| 20260507062248 | 60 | 198 | 5.0 | 6.0 | 0.00 | 0.00 | 0.00 | 69 | 1020.3 |
| 20260507061748 | 60 | 180 | 3.0 | 3.0 | 0.00 | 0.00 | 0.00 | 70 | 1020.7 |
| 20260507061249 | 60 | 156 | 5.0 | 5.0 | 0.00 | 0.00 | 0.00 | 70 | 1020.7 |
| 20260507060748 | 60 | 167 | 3.0 | 3.0 | 0.00 | 0.00 | 0.00 | 72 | 1020.7 |
| 20260507060247 | 60 | 222 | 2.0 | 2.0 | 0.00 | 0.00 | 0.00 | 70 | 1020.7 |
| 20260507055748 | 59 | 146 | 3.0 | 3.0 | 0.00 | 0.00 | 0.00 | 70 | 1020.7 |
| 20260507055247 | 58 | 144 | 3.0 | 3.0 | 0.00 | 0.00 | 0.00 | 70 | 1020.3 |
| 20260507054747 | 58 | 186 | 3.0 | 3.0 | 0.00 | 0.00 | 0.00 | 70 | 1020.3 |
| 20260507054249 | 58 | 277 | 2.0 | 2.0 | 0.00 | 0.00 | 0.00 | 71 | 1020.7 |
| 20260507053747 | 58 | 155 | 3.0 | 3.0 | 0.00 | 0.00 | 0.00 | 73 | 1020.3 |
| 20260507053248 | 58 | 165 | 2.0 | 2.0 | 0.00 | 0.00 | 0.00 | 74 | 1020.7 |
| 20260507052747 | 57 | 138 | 2.0 | 2.0 | 0.00 | 0.00 | 0.00 | 75 | 1020.3 |
| 20260507052247 | 58 | 210 | 6.0 | 7.0 | 0.00 | 0.00 | 0.00 | 74 | 1020.3 |
| 20260507051747 | 58 | 282 | 2.0 | 2.0 | 0.00 | 0.00 | 0.00 | 72 | 1020.3 |
| 20260507051247 | 58 | 136 | 0.0 | 0.0 | 0.00 | 0.00 | 0.00 | 71 | 1020.3 |
| 20260507050747 | 59 | 182 | 0.0 | 0.0 | 0.00 | 0.00 | 0.00 | 70 | 1020.3 |
| 20260507050248 | 59 | 162 | 0.0 | 0.0 | 0.00 | 0.00 | 0.00 | 69 | 1020.0 |
| 20260507045748 | 58 | 126 | 0.0 | 0.0 | 0.00 | 0.00 | 0.00 | 71 | 1020.0 |
| 20260507045247 | 58 | 162 | 1.0 | 1.0 | 0.00 | 0.00 | 0.00 | 70 | 1020.0 |
| 20260507044748 | 57 | 91 | 0.0 | 0.0 | 0.00 | 0.00 | 0.00 | 70 | 1020.3 |
| 20260507044248 | 57 | 171 | 0.0 | 0.0 | 0.00 | 0.00 | 0.00 | 74 | 1020.0 |
| 20260507043749 | 57 | 102 | 0.0 | 0.0 | 0.00 | 0.00 | 0.00 | 74 | 1020.0 |
| 20260507043248 | 55 | 142 | 1.0 | 1.0 | 0.00 | 0.00 | 0.00 | 74 | 1020.0 |
| 20260507042748 | 55 | 138 | 0.0 | 0.0 | 0.00 | 0.00 | 0.00 | 76 | 1020.0 |
| 20260507042247 | 54 | 192 | 0.0 | 0.0 | 0.00 | 0.00 | 0.00 | 77 | 1020.0 |
| 20260507041751 | 55 | 144 | 0.0 | 0.0 | 0.00 | 0.00 | 0.00 | 75 | 1020.0 |
| 20260507041249 | 54 | 126 | 0.0 | 0.0 | 0.00 | 0.00 | 0.00 | 78 | 1020.0 |
| 20260507040747 | 54 | 78 | 0.0 | 0.0 | 0.00 | 0.00 | 0.00 | 79 | 1020.0 |
| 20260507040249 | 54 | 159 | 0.0 | 0.0 | 0.00 | 0.00 | 0.00 | 80 | 1020.0 |
| 20260507035748 | 53 | 108 | 0.0 | 0.0 | 0.00 | 0.00 | 0.00 | 81 | 1019.6 |
| 20260507035248 | 53 | 150 | 1.0 | 1.0 | 0.00 | 0.00 | 0.00 | 82 | 1020.0 |
| 20260507034748 | 53 | 90 | 0.0 | 0.0 | 0.00 | 0.00 | 0.00 | 81 | 1019.6 |
| 20260507034247 | 53 | 36 | 0.0 | 0.0 | 0.00 | 0.00 | 0.00 | 81 | 1019.6 |
| 20260507033747 | 52 | 6 | 0.0 | 0.0 | 0.00 | 0.00 | 0.00 | 82 | 1019.6 |
| 20260507033247 | 51 | 197 | 0.0 | 0.0 | 0.00 | 0.00 | 0.00 | 85 | 1019.6 |
| 20260507032749 | 51 | 203 | 0.0 | 0.0 | 0.00 | 0.00 | 0.00 | 86 | 1019.3 |
| 20260507032248 | 51 | 270 | 0.0 | 0.0 | 0.00 | 0.00 | 0.00 | 86 | 1019.3 |
| 20260507031747 | 51 | 246 | 0.0 | 0.0 | 0.00 | 0.00 | 0.00 | 85 | 1019.6 |
| 20260507031249 | 51 | 272 | 0.0 | 0.0 | 0.00 | 0.00 | 0.00 | 85 | 1019.3 |
| 20260507030748 | 51 | 213 | 0.0 | 0.0 | 0.00 | 0.00 | 0.00 | 85 | 1019.3 |
| 20260507030250 | 50 | 204 | 0.0 | 0.0 | 0.00 | 0.00 | 0.00 | 86 | 1019.3 |
| 20260507025748 | 50 | 234 | 1.0 | 1.0 | 0.00 | 0.00 | 0.00 | 86 | 1019.3 |
| 20260507025247 | 50 | 225 | 1.0 | 1.0 | 0.00 | 0.00 | 0.00 | 86 | 1019.3 |
| 20260507024748 | 51 | 171 | 1.0 | 1.0 | 0.00 | 0.00 | 0.00 | 86 | 1019.3 |
| 20260507024248 | 51 | 96 | 0.0 | 0.0 | 0.00 | 0.00 | 0.00 | 86 | 1019.0 |
| 20260507023748 | 51 | 186 | 0.0 | 0.0 | 0.00 | 0.00 | 0.00 | 86 | 1019.0 |
| 20260507023248 | 51 | 96 | 0.0 | 0.0 | 0.00 | 0.00 | 0.00 | 86 | 1019.0 |
| 20260507022747 | 51 | 240 | 0.0 | 0.0 | 0.00 | 0.00 | 0.00 | 86 | 1019.3 |
| 20260507022248 | 51 | 216 | 0.0 | 0.0 | 0.00 | 0.00 | 0.00 | 85 | 1019.0 |
| 20260507021748 | 51 | 156 | 0.0 | 0.0 | 0.00 | 0.00 | 0.00 | 85 | 1019.0 |
| 20260507021252 | 51 | 259 | 0.0 | 0.0 | 0.00 | 0.00 | 0.00 | 85 | 1019.0 |
| 20260507020748 | 51 | 36 | 0.0 | 0.0 | 0.00 | 0.00 | 0.00 | 83 | 1019.0 |
| 20260507020247 | 51 | 90 | 0.0 | 0.0 | 0.00 | 0.00 | 0.00 | 84 | 1019.0 |
| 20260507015748 | 51 | 60 | 1.0 | 1.0 | 0.00 | 0.00 | 0.00 | 84 | 1019.0 |
| 20260507015248 | 51 | 72 | 0.0 | 0.0 | 0.00 | 0.00 | 0.00 | 84 | 1018.6 |
| 20260507014747 | 51 | 187 | 0.0 | 0.0 | 0.00 | 0.00 | 0.00 | 84 | 1019.0 |
| 20260507014248 | 52 | 216 | 0.0 | 0.0 | 0.00 | 0.00 | 0.00 | 84 | 1019.0 |
| 20260507013748 | 52 | 225 | 0.0 | 0.0 | 0.00 | 0.00 | 0.00 | 82 | 1018.6 |
| 20260507013247 | 52 | 203 | 3.0 | 3.0 | 0.00 | 0.00 | 0.00 | 82 | 1019.0 |
| 20260507012748 | 52 | 204 | 5.0 | 5.0 | 0.00 | 0.00 | 0.00 | 81 | 1018.6 |
| 20260507012247 | 53 | 248 | 1.0 | 1.0 | 0.00 | 0.00 | 0.00 | 79 | 1019.0 |
| 20260507011748 | 53 | 234 | 2.0 | 2.0 | 0.00 | 0.00 | 0.00 | 80 | 1018.6 |
| 20260507011248 | 53 | 174 | 0.0 | 0.0 | 0.00 | 0.00 | 0.00 | 81 | 1018.6 |
| 20260507010747 | 53 | 288 | 0.0 | 0.0 | 0.00 | 0.00 | 0.00 | 82 | 1018.6 |
| 20260507010247 | 53 | 177 | 0.0 | 0.0 | 0.00 | 0.00 | 0.00 | 82 | 1018.3 |
| 20260507005748 | 53 | 355 | 0.0 | 0.0 | 0.00 | 0.00 | 0.00 | 81 | 1018.6 |
| 20260507005247 | 53 | 180 | 0.0 | 0.0 | 0.00 | 0.00 | 0.00 | 81 | 1018.6 |
| 20260507004747 | 53 | 192 | 0.0 | 0.0 | 0.00 | 0.00 | 0.00 | 80 | 1018.6 |
| 20260507004247 | 53 | 192 | 0.0 | 0.0 | 0.00 | 0.00 | 0.00 | 80 | 1018.6 |
| 20260507003748 | 53 | 6 | 0.0 | 0.0 | 0.00 | 0.00 | 0.00 | 80 | 1018.6 |
| 20260507003247 | 54 | 159 | 1.0 | 1.0 | 0.00 | 0.00 | 0.00 | 78 | 1018.3 |
| 20260507002747 | 54 | 198 | 1.0 | 1.0 | 0.00 | 0.00 | 0.00 | 77 | 1018.3 |
| 20260507002248 | 54 | 240 | 0.0 | 0.0 | 0.00 | 0.00 | 0.00 | 77 | 1018.3 |
| 20260507001747 | 54 | 204 | 0.0 | 0.0 | 0.00 | 0.00 | 0.00 | 76 | 1018.3 |
| 20260507001248 | 54 | 222 | 1.0 | 1.0 | 0.00 | 0.00 | 0.00 | 76 | 1018.6 |
| 20260507000747 | 54 | 130 | 0.0 | 0.0 | 0.00 | 0.00 | 0.00 | 76 | 1018.3 |
| 20260507000247 | 55 | 188 | 2.0 | 2.0 | 0.00 | 0.00 | 0.00 | 75 | 1018.3 |
| 20260506235747 | 55 | 220 | 2.0 | 2.0 | 0.00 | 0.00 | 0.00 | 74 | 1018.3 |
| 20260506235247 | 55 | 150 | 2.0 | 2.0 | 0.00 | 0.00 | 0.00 | 74 | 1018.6 |
| 20260506234748 | 56 | 192 | 3.0 | 3.0 | 0.00 | 0.00 | 0.00 | 73 | 1018.3 |
| 20260506234248 | 57 | 120 | 0.0 | 0.0 | 0.00 | 0.00 | 0.00 | 73 | 1018.6 |
| 20260506233748 | 57 | 176 | 0.0 | 0.0 | 0.00 | 0.00 | 0.00 | 72 | 1018.3 |
| 20260506233247 | 57 | 252 | 0.0 | 0.0 | 0.00 | 0.00 | 0.00 | 70 | 1018.3 |
| 20260506232748 | 57 | 234 | 0.0 | 0.0 | 0.00 | 0.00 | 0.00 | 71 | 1018.3 |
| 20260506232247 | 57 | 342 | 3.0 | 3.0 | 0.00 | 0.00 | 0.00 | 69 | 1018.6 |
| 20260506231748 | 57 | 276 | 5.0 | 6.0 | 0.00 | 0.00 | 0.00 | 70 | 1018.3 |
| 20260506231248 | 57 | 336 | 3.0 | 3.0 | 0.00 | 0.00 | 0.00 | 68 | 1018.3 |
| 20260506230748 | 58 | 348 | 4.0 | 4.0 | 0.00 | 0.00 | 0.00 | 69 | 1018.3 |
| 20260506230248 | 58 | 287 | 4.0 | 4.0 | 0.00 | 0.00 | 0.00 | 68 | 1018.3 |
| 20260506225747 | 58 | 294 | 1.0 | 1.0 | 0.00 | 0.00 | 0.00 | 68 | 1018.3 |
| 20260506225249 | 58 | 6 | 5.0 | 5.0 | 0.00 | 0.00 | 0.00 | 68 | 1018.3 |
| 20260506224748 | 58 | 30 | 1.0 | 1.0 | 0.00 | 0.00 | 0.00 | 67 | 1018.3 |
| 20260506224248 | 58 | 34 | 1.0 | 1.0 | 0.00 | 0.00 | 0.00 | 67 | 1018.6 |
| 20260506223747 | 58 | 1 | 3.0 | 3.0 | 0.00 | 0.00 | 0.00 | 68 | 1018.3 |
| 20260506223248 | 58 | 48 | 1.0 | 1.0 | 0.00 | 0.00 | 0.00 | 67 | 1018.3 |
| 20260506222747 | 58 | 6 | 1.0 | 1.0 | 0.00 | 0.00 | 0.00 | 68 | 1018.6 |
| 20260506222248 | 58 | 354 | 3.0 | 3.0 | 0.00 | 0.00 | 0.00 | 69 | 1018.3 |
| 20260506221748 | 58 | 54 | 1.0 | 1.0 | 0.00 | 0.00 | 0.00 | 67 | 1018.3 |
| 20260506221247 | 58 | 300 | 1.0 | 1.0 | 0.00 | 0.00 | 0.00 | 67 | 1018.3 |
| 20260506220753 | 58 | 6 | 3.0 | 3.0 | 0.00 | 0.00 | 0.00 | 66 | 1018.3 |
| 20260506220248 | 58 | 30 | 3.0 | 3.0 | 0.00 | 0.00 | 0.00 | 65 | 1018.6 |
| 20260506215747 | 58 | 168 | 2.0 | 2.0 | 0.00 | 0.00 | 0.00 | 68 | 1018.6 |
| 20260506215248 | 58 | 1 | 3.0 | 4.0 | 0.00 | 0.00 | 0.00 | 69 | 1018.6 |
| 20260506214748 | 58 | 324 | 3.0 | 3.0 | 0.00 | 0.00 | 0.00 | 69 | 1018.6 |
| 20260506214251 | 58 | 48 | 4.0 | 5.0 | 0.00 | 0.00 | 0.00 | 68 | 1018.6 |
| 20260506213748 | 58 | 30 | 3.0 | 3.0 | 0.00 | 0.00 | 0.00 | 67 | 1018.6 |
| 20260506213247 | 59 | 48 | 2.0 | 2.0 | 0.00 | 0.00 | 0.00 | 66 | 1018.6 |
| 20260506212748 | 59 | 316 | 1.0 | 1.0 | 0.00 | 0.00 | 0.00 | 65 | 1018.6 |
| 20260506212248 | 59 | 348 | 4.0 | 5.0 | 0.00 | 0.00 | 0.00 | 64 | 1018.6 |
| 20260506211748 | 59 | 48 | 2.0 | 2.0 | 0.00 | 0.00 | 0.00 | 61 | 1018.6 |
| 20260506211247 | 59 | 342 | 3.0 | 3.0 | 0.00 | 0.00 | 0.00 | 64 | 1018.6 |
| 20260506210748 | 59 | 324 | 2.0 | 2.0 | 0.00 | 0.00 | 0.00 | 66 | 1019.0 |
| 20260506210248 | 58 | 1 | 4.0 | 4.0 | 0.00 | 0.00 | 0.00 | 64 | 1018.6 |
| 20260506205747 | 58 | 6 | 3.0 | 4.0 | 0.00 | 0.00 | 0.00 | 68 | 1018.6 |
| 20260506205247 | 58 | 187 | 4.0 | 5.0 | 0.00 | 0.00 | 0.00 | 68 | 1018.6 |
| 20260506204747 | 58 | 6 | 2.0 | 2.0 | 0.00 | 0.00 | 0.00 | 68 | 1018.3 |
| 20260506204249 | 58 | 84 | 2.0 | 2.0 | 0.00 | 0.00 | 0.00 | 68 | 1018.6 |
| 20260506203748 | 59 | 342 | 2.0 | 2.0 | 0.00 | 0.00 | 0.00 | 65 | 1018.6 |
| 20260506203247 | 59 | 350 | 3.0 | 3.0 | 0.00 | 0.00 | 0.00 | 65 | 1018.3 |
| 20260506202747 | 60 | 348 | 3.0 | 3.0 | 0.00 | 0.00 | 0.00 | 63 | 1018.3 |
| 20260506202247 | 59 | 36 | 4.0 | 5.0 | 0.00 | 0.00 | 0.00 | 63 | 1018.3 |
| 20260506201748 | 59 | 311 | 2.0 | 2.0 | 0.00 | 0.00 | 0.00 | 65 | 1018.6 |
| 20260506201248 | 59 | 342 | 5.0 | 5.0 | 0.00 | 0.00 | 0.00 | 65 | 1018.3 |
| 20260506200747 | 60 | 300 | 3.0 | 3.0 | 0.00 | 0.00 | 0.00 | 64 | 1018.3 |
| 20260506200248 | 61 | 348 | 0.0 | 0.0 | 0.00 | 0.00 | 0.00 | 59 | 1018.3 |
| 20260506195747 | 61 | 294 | 2.0 | 2.0 | 0.00 | 0.00 | 0.00 | 57 | 1018.6 |
| 20260506195247 | 61 | 336 | 0.0 | 0.0 | 0.00 | 0.00 | 0.00 | 60 | 1018.3 |
| 20260506194748 | 61 | 260 | 0.0 | 0.0 | 0.00 | 0.00 | 0.00 | 59 | 1018.3 |
| 20260506194248 | 62 | 318 | 5.0 | 6.0 | 0.00 | 0.00 | 0.00 | 58 | 1018.3 |
| 20260506193749 | 61 | 339 | 9.0 | 9.0 | 0.00 | 0.00 | 0.00 | 58 | 1018.3 |
| 20260506193249 | 61 | 183 | 6.0 | 7.0 | 0.00 | 0.00 | 0.00 | 60 | 1018.3 |
| 20260506192748 | 61 | 310 | 5.0 | 5.0 | 0.00 | 0.00 | 0.00 | 59 | 1018.3 |
| 20260506192247 | 61 | 0 | 5.0 | 7.0 | 0.00 | 0.00 | 0.00 | 61 | 1018.3 |
| 20260506191748 | 61 | 344 | 7.0 | 8.0 | 0.00 | 0.00 | 0.00 | 61 | 1018.3 |
| 20260506191247 | 62 | 351 | 5.0 | 5.0 | 0.00 | 0.00 | 0.00 | 58 | 1018.3 |
| 20260506190747 | 62 | 342 | 5.0 | 5.0 | 0.00 | 0.00 | 0.00 | 58 | 1018.3 |
| 20260506190247 | 62 | 354 | 6.0 | 6.0 | 0.00 | 0.00 | 0.00 | 57 | 1018.3 |
| 20260506185747 | 62 | 348 | 4.0 | 4.0 | 0.00 | 0.00 | 0.00 | 56 | 1018.3 |
| 20260506185248 | 62 | 336 | 5.0 | 5.0 | 0.00 | 0.00 | 0.00 | 60 | 1018.3 |
| 20260506184748 | 62 | 288 | 1.0 | 1.0 | 0.00 | 0.00 | 0.00 | 60 | 1018.3 |
| 20260506184248 | 62 | 294 | 2.0 | 2.0 | 0.00 | 0.00 | 0.00 | 57 | 1018.3 |
| 20260506183747 | 62 | 276 | 5.0 | 5.0 | 0.00 | 0.00 | 0.00 | 56 | 1018.3 |
| 20260506183248 | 61 | 208 | 2.0 | 2.0 | 0.00 | 0.00 | 0.00 | 63 | 1018.3 |
| 20260506182747 | 60 | 120 | 1.0 | 1.0 | 0.00 | 0.00 | 0.00 | 61 | 1018.3 |
| 20260506182247 | 60 | 60 | 0.0 | 0.0 | 0.00 | 0.00 | 0.00 | 63 | 1017.9 |
| 20260506181747 | 60 | 1 | 3.0 | 3.0 | 0.00 | 0.00 | 0.00 | 65 | 1018.3 |
| 20260506181249 | 61 | 113 | 2.0 | 2.0 | 0.00 | 0.00 | 0.00 | 64 | 1018.3 |
| 20260506180748 | 61 | 42 | 2.0 | 2.0 | 0.00 | 0.00 | 0.00 | 62 | 1017.9 |
| 20260506180249 | 61 | 0 | 0.0 | 0.0 | 0.00 | 0.00 | 0.00 | 61 | 1017.9 |
| 20260506175747 | 62 | 276 | 2.0 | 2.0 | 0.00 | 0.00 | 0.00 | 62 | 1017.9 |
| 20260506175247 | 61 | 350 | 1.0 | 1.0 | 0.00 | 0.00 | 0.00 | 62 | 1017.9 |
| 20260506174749 | 61 | 66 | 2.0 | 2.0 | 0.00 | 0.00 | 0.00 | 62 | 1017.6 |
| 20260506174248 | 61 | 36 | 4.0 | 5.0 | 0.00 | 0.00 | 0.00 | 60 | 1017.6 |
| 20260506173747 | 62 | 72 | 3.0 | 3.0 | 0.00 | 0.00 | 0.00 | 63 | 1017.6 |
| 20260506173248 | 62 | 84 | 2.0 | 2.0 | 0.00 | 0.00 | 0.00 | 61 | 1017.6 |
| 20260506172747 | 63 | 276 | 2.0 | 2.0 | 0.00 | 0.00 | 0.00 | 59 | 1017.6 |
| 20260506172248 | 63 | 228 | 4.0 | 4.0 | 0.00 | 0.00 | 0.00 | 59 | 1017.3 |
| 20260506171747 | 63 | 206 | 4.0 | 5.0 | 0.00 | 0.00 | 0.00 | 59 | 1017.3 |
| 20260506171248 | 63 | 354 | 0.0 | 0.0 | 0.00 | 0.00 | 0.00 | 59 | 1016.9 |
| 20260506170747 | 63 | 294 | 9.0 | 9.0 | 0.00 | 0.00 | 0.00 | 58 | 1016.9 |
| 20260506170248 | 63 | 282 | 2.0 | 2.0 | 0.00 | 0.00 | 0.00 | 58 | 1016.9 |
| 20260506165748 | 63 | 242 | 6.0 | 7.0 | 0.00 | 0.00 | 0.00 | 59 | 1016.9 |
| 20260506165248 | 63 | 261 | 7.0 | 8.0 | 0.00 | 0.00 | 0.00 | 58 | 1017.3 |
| 20260506164748 | 64 | 312 | 4.0 | 5.0 | 0.00 | 0.00 | 0.00 | 58 | 1016.9 |
| 20260506164248 | 64 | 312 | 6.0 | 6.0 | 0.00 | 0.00 | 0.00 | 58 | 1016.9 |
| 20260506163747 | 64 | 282 | 8.0 | 9.0 | 0.00 | 0.00 | 0.00 | 58 | 1016.9 |
| 20260506163256 | 64 | 282 | 9.0 | 9.0 | 0.00 | 0.00 | 0.00 | 57 | 1016.9 |
| 20260506162749 | 64 | 312 | 7.0 | 8.0 | 0.00 | 0.00 | 0.00 | 57 | 1016.9 |
| 20260506162248 | 64 | 264 | 5.0 | 5.0 | 0.00 | 0.00 | 0.00 | 57 | 1016.9 |
| 20260506161748 | 64 | 282 | 3.0 | 3.0 | 0.00 | 0.00 | 0.00 | 56 | 1016.9 |
| 20260506161247 | 65 | 318 | 7.0 | 7.0 | 0.00 | 0.00 | 0.00 | 56 | 1016.9 |
| 20260506160750 | 65 | 288 | 3.0 | 3.0 | 0.00 | 0.00 | 0.00 | 56 | 1016.9 |
| 20260506160247 | 65 | 271 | 18.0 | 19.0 | 0.00 | 0.00 | 0.00 | 55 | 1016.9 |
| 20260506155748 | 65 | 260 | 12.0 | 14.0 | 0.00 | 0.00 | 0.00 | 54 | 1016.9 |
| 20260506155248 | 65 | 265 | 8.0 | 8.0 | 0.00 | 0.00 | 0.00 | 55 | 1016.6 |
| 20260506154747 | 66 | 277 | 7.0 | 7.0 | 0.00 | 0.00 | 0.00 | 54 | 1016.9 |
| 20260506154248 | 66 | 287 | 9.0 | 9.0 | 0.00 | 0.00 | 0.00 | 53 | 1016.6 |
| 20260506153748 | 66 | 248 | 11.0 | 11.0 | 0.00 | 0.00 | 0.00 | 53 | 1016.6 |
| 20260506153248 | 66 | 310 | 13.0 | 15.0 | 0.00 | 0.00 | 0.00 | 52 | 1016.3 |
| 20260506152751 | 67 | 270 | 8.0 | 8.0 | 0.00 | 0.00 | 0.00 | 53 | 1016.6 |
| 20260506152248 | 67 | 304 | 9.0 | 9.0 | 0.00 | 0.00 | 0.00 | 52 | 1016.6 |
| 20260506151748 | 67 | 332 | 7.0 | 8.0 | 0.00 | 0.00 | 0.00 | 51 | 1016.3 |
| 20260506151249 | 67 | 282 | 18.0 | 20.0 | 0.00 | 0.00 | 0.00 | 51 | 1016.3 |
| 20260506150748 | 67 | 264 | 12.0 | 13.0 | 0.00 | 0.00 | 0.00 | 51 | 1016.6 |
| 20260506150247 | 67 | 266 | 6.0 | 7.0 | 0.00 | 0.00 | 0.00 | 50 | 1016.6 |
| 20260506145748 | 67 | 303 | 11.0 | 14.0 | 0.00 | 0.00 | 0.00 | 50 | 1016.3 |
| 20260506145247 | 68 | 282 | 9.0 | 11.0 | 0.00 | 0.00 | 0.00 | 49 | 1016.6 |
| 20260506144747 | 68 | 252 | 12.0 | 13.0 | 0.00 | 0.00 | 0.00 | 50 | 1016.6 |
| 20260506144248 | 68 | 306 | 4.0 | 5.0 | 0.00 | 0.00 | 0.00 | 50 | 1016.3 |
| 20260506143747 | 68 | 356 | 13.0 | 15.0 | 0.00 | 0.00 | 0.00 | 49 | 1016.3 |
| 20260506143248 | 68 | 287 | 9.0 | 11.0 | 0.00 | 0.00 | 0.00 | 49 | 1016.6 |
| 20260506142749 | 68 | 246 | 9.0 | 10.0 | 0.00 | 0.00 | 0.00 | 49 | 1016.6 |
| 20260506142249 | 68 | 282 | 15.0 | 18.0 | 0.00 | 0.00 | 0.00 | 48 | 1016.6 |
| 20260506141749 | 68 | 258 | 9.0 | 11.0 | 0.00 | 0.00 | 0.00 | 48 | 1016.3 |
| 20260506141249 | 68 | 306 | 5.0 | 7.0 | 0.00 | 0.00 | 0.00 | 49 | 1016.6 |
| 20260506140748 | 68 | 264 | 19.0 | 20.0 | 0.00 | 0.00 | 0.00 | 48 | 1016.6 |
| 20260506140248 | 69 | 299 | 9.0 | 11.0 | 0.00 | 0.00 | 0.00 | 48 | 1016.3 |
| 20260506135749 | 69 | 246 | 15.0 | 16.0 | 0.00 | 0.00 | 0.00 | 47 | 1016.3 |
| 20260506135248 | 69 | 348 | 10.0 | 11.0 | 0.00 | 0.00 | 0.00 | 48 | 1016.3 |
| 20260506134748 | 69 | 270 | 5.0 | 5.0 | 0.00 | 0.00 | 0.00 | 48 | 1016.3 |
| 20260506134248 | 69 | 310 | 8.0 | 9.0 | 0.00 | 0.00 | 0.00 | 48 | 1016.3 |
| 20260506133749 | 69 | 223 | 8.0 | 8.0 | 0.00 | 0.00 | 0.00 | 48 | 1016.3 |
| 20260506133248 | 69 | 322 | 10.0 | 12.0 | 0.00 | 0.00 | 0.00 | 48 | 1016.6 |
| 20260506132748 | 69 | 226 | 11.0 | 15.0 | 0.00 | 0.00 | 0.00 | 48 | 1016.3 |
| 20260506132248 | 69 | 282 | 11.0 | 12.0 | 0.00 | 0.00 | 0.00 | 47 | 1016.6 |
| 20260506131748 | 69 | 287 | 8.0 | 8.0 | 0.00 | 0.00 | 0.00 | 48 | 1016.3 |
| 20260506131247 | 69 | 229 | 8.0 | 9.0 | 0.00 | 0.00 | 0.00 | 48 | 1016.3 |
| 20260506130747 | 69 | 205 | 8.0 | 9.0 | 0.00 | 0.00 | 0.00 | 48 | 1016.3 |
| 20260506130248 | 69 | 258 | 10.0 | 11.0 | 0.00 | 0.00 | 0.00 | 49 | 1016.3 |
| 20260506125748 | 69 | 227 | 6.0 | 7.0 | 0.00 | 0.00 | 0.00 | 48 | 1016.6 |
| 20260506125247 | 69 | 246 | 10.0 | 11.0 | 0.00 | 0.00 | 0.00 | 49 | 1016.3 |